Voltar ao catálogo

STARLINK-2753

AtivoComunicaçõesVLEO
NORAD 48696·PAYLOAD·🇺🇸 United States

Lançado May 26, 2021 de Cape Canaveral Space Force Station

Loading…

Próximas Passagens (próximas 24 horas)

TLE

AtualizadoSource: CelesTrak SupGP

Época: Sep 14, 2026, 21:31 UTC

1 48696C 21044BL  26257.89701389  .00052454  00000+0  15682-2 0  2571
2 48696  53.1570 287.7749 0003954  39.9942 323.7395 15.33983439    18

Acompanhe STARLINK-2753 em tempo real com AllMySat

Download on the App Store